Regional Weather Roundup
Issued by NWS

Home | Current Version | Previous Version | Text Only | Print | Product List | Glossary On
Versions: 1 2 3 4 5 6 7 8 9 10 11 12 13 14 15 16 17 18 19 20 21 22 23 24 25 26 27 28 29 30 31 32 33 34 35 36 37 38 39 40 41 42 43 44 45 46 47 48 49 50
000
ASUS43 KTOP 012308
RWRKS

WEATHER ROUNDUP FOR KANSAS
NATIONAL WEATHER SERVICE GOODLAND KS
600 PM CDT WED JUL 01 2015

NOTE:  "FAIR" INDICATES FEW OR NO CLOUDS BELOW 12,000 FEET WITH NO
SIGNIFICANT WEATHER AND/OR OBSTRUCTIONS TO VISIBILITY.

KSZ001>006-013>018-027>032-041>047-020000-
NORTHWEST KANSAS

CITY           SKY/WX    TMP DP  RH WIND       PRES   REMARKS
GOODLAND       SUNNY     95  48  20 NE8       29.97S
HAYS           SUNNY     99  54  22 NE15      29.84S HX  96
HILL CITY      SUNNY     98  59  27 NE14      29.88S HX  98
RUSSELL        SUNNY     98  57  25 N14       29.81S HX  97
$$

KSZ061>065-074>080-084>089-020000-
SOUTHWEST KANSAS

CITY           SKY/WX    TMP DP  RH WIND       PRES   REMARKS
DODGE CITY     MOSUNNY   96  55  25 NE14G23   29.87S
ELKHART          N/A     98  54  22 NE14        N/A  HX  96
GARDEN CITY    SUNNY     97  53  22 NE13G22   29.89S
GREAT BEND     SUNNY     97  63  32 NE12      29.82S HX  98
LIBERAL        PTSUNNY   97  61  30 E10       29.91S HX  97
PRATT          SUNNY     97  54  23 N9        29.83F
$$

KSZ066>073-081>083-090>101-020000-
SOUTHEAST KANSAS

CITY           SKY/WX    TMP DP  RH WIND       PRES   REMARKS
CHANUTE        CLOUDY    87  73  62 S20G28    29.78F
COFFEYVILLE    LGT RAIN  85  74  69 S16       29.79F
HUTCHINSON     MOSUNNY   96  65  35 N9        29.78S HX  98
MEDICINE LODGE   N/A    101  60  25 N13       29.76S HX 101
PARSONS        CLOUDY    86  75  69 S10       29.81F HX  95
WICHITA INTL   PTSUNNY   97  68  38 SW5       29.75F HX 102
WICHITA JABRA  PTSUNNY   93  69  45 S5        29.76F HX  98
WICHITA MCCONL PTSUNNY   95  67  40 S12       29.76S HX  98
WINFIELD       PTSUNNY   96  64  34 S16G30    29.78F HX  98
$$

KSZ007>012-019>026-033>040-048>060-102>105-020000-
NORTHEAST KANSAS

CITY           SKY/WX    TMP DP  RH WIND       PRES   REMARKS
CONCORDIA      SUNNY     91  69  48 NE8       29.81S HX  96
EMPORIA        MOSUNNY   91  71  51 SE3       29.78F HX  97
LAWRENCE       MOSUNNY   88  76  67 SE9       29.79S HX  99
MANHATTAN      MOSUNNY   95  65  37 VRB5      29.77S HX  97
MARYSVILLE     SUNNY     88  72  58 E6        29.82S
OLATHE IND     MOSUNNY   86  76  71 SE13      29.81F HX  96
OLATHE EXE     MOSUNNY   85  76  74 S12       29.80F
SALINA         SUNNY     95  62  33 N7        29.78F HX  96
TOPEKA BILLARD SUNNY     91  68  46 SW6       29.78S HX  95
TOPEKA FORBES  SUNNY     93  68  43 VRB5      29.79S HX  97
$$


USA.gov is the U.S. government's official web portal to all federal, state and local government web resources and services.